[[{"header":{"parameterUnit":"m.s-1","parameterCategory":2,"la1":30.2991,"la2":30.254,"lo1":-89.0895,"lo2":-89.0444,"dy":0.0017,"dx":0.0017,"nx":28,"ny":28,"refTime":"2024-12-16T03:00:00:Z","depth":"0","parameterNumber":2,"parameterNumberName":"U-component_of_CURRENTS"},"data":[0,0,0,0,0,0,0,0,0,0,0,0,0,0,0,0,0,0,0,0,0,0,0,0,0,0,0,0,0,0,0,0,0,0,0,0,0,0,0,0,0,0,0,0,0,0,0,0,0,0,0,0,0,0,0,0,0,0,0.4094,0.4095,0,0.4145,0.4145,0.4145,0.4134,0.4133,0.4133,0.4133,0.405,0.4048,0.4046,0,0,0,0,0,0,0,0,0,0,0,0,0,0.4021,0.4021,0.4094,0.4095,0.4096,0.4145,0.4145,0.4145,0.4134,0.4133,0.4133,0.4132,0.405,0.4048,0.4046,0,0,0,0,0,0,0,0,0,0,0,0,0,0.4054,0.4022,0.4094,0.4101,0.4103,0.4145,0.4145,0.4145,0.4134,0.4133,0.4133,0.4132,0.4051,0.4048,0.4046,0.4039,0,0,0.4037,0.4036,0,0,0,0,0,0,0,0,0.4052,0.4056,0.4099,0.4101,0.4103,0.4138,0.4089,0.4105,0.4134,0.4115,0.4133,0.4132,0.4072,0.4067,0.4071,0.4036,0.4032,0.4037,0.4035,0.4034,0.4033,0,0,0,0,0,0,0,0.405,0.4054,0.4107,0.41,0.4103,0.4115,0.4117,0.4093,0.4088,0.4117,0.4118,0.4134,0.4071,0.4073,0.4068,0.4031,0.4037,0.4035,0.4033,0.4032,0.4026,0.4027,0,0,0,0,0,0,0.4056,0.4052,0.4106,0.411,0.4083,0.4117,0.412,0.4122,0.4092,0.4089,0.4134,0.4133,0.4078,0.4072,0.4065,0.4079,0.4034,0.4031,0.403,0.4024,0.4026,0.4028,0,0,0,0,0,0,0.4053,0.4059,0.4104,0.4088,0.4095,0.4119,0.4121,0.4123,0.4132,0.4108,0.4101,0.4142,0.4078,0.4069,0.4048,0.4075,0.403,0.4028,0.4022,0.4025,0.4027,0.4092,0,0,0,0,0,0,0.4051,0.4058,0.4055,0.4088,0.4096,0.4125,0.4123,0.4125,0.4146,0.4145,0.4112,0.4104,0.4077,0.4053,0.4046,0.407,0.4025,0.4021,0.4024,0.4026,0.4088,0.4096,0.4103,0,0,0,0,0,0.4048,0.4042,0.4054,0.4061,0.4093,0.4126,0.413,0.4141,0.4147,0.4147,0.4132,0.4105,0.4067,0.4051,0.4042,0.4067,0.4019,0.4023,0.4026,0.4084,0.4094,0.4103,0,0,0,0,0,0,0.3994,0.4043,0.4055,0.406,0.4093,0.4126,0.4132,0.4149,0.4141,0.4137,0.411,0.4101,0.4099,0.4074,0.4058,0.4077,0.4044,0.4046,0.4092,0.4101,0.4109,0.4128,0.4023,0,0,0,0,0,0.3988,0.4003,0.4049,0.4053,0.4071,0.4106,0.4121,0.4135,0.4142,0.414,0.4122,0.4109,0.4108,0.4096,0.4082,0.4079,0.4088,0.4095,0.4103,0.4109,0.4122,0.4179,0.4193,0.4039,0.4039,0.4039,0,0,0.3969,0.3999,0.4006,0.4045,0.407,0.4104,0.4111,0.4138,0.4164,0.4129,0.4137,0.4129,0.4114,0.412,0.4118,0.4098,0.4156,0.4114,0.4119,0.4128,0.4184,0.4199,0.4212,0.4041,0.4041,0.4041,0,0,0.3952,0.3967,0.3983,0.4016,0.4067,0.4097,0.411,0.4149,0.4159,0.4172,0.4168,0.418,0.4156,0.4167,0.4168,0.421,0.4198,0.4205,0.4253,0.4308,0.4321,0.4333,0.4355,0.4368,0.4206,0.4206,0.4206,0,0.3932,0.3955,0.399,0.4022,0.4052,0.4099,0.4128,0.4154,0.4179,0.4197,0.4177,0.4208,0.4188,0.4231,0.4248,0.4229,0.4246,0.4216,0.4319,0.4331,0.4342,0.4361,0.4375,0.4209,0.4209,0.4209,0.4208,0,0.3942,0.396,0.3973,0.4034,0.4067,0.4097,0.4154,0.4183,0.4207,0.4237,0.4277,0.4269,0.4292,0.4295,0.4279,0.4355,0.4337,0.4325,0.4296,0.4362,0.4377,0.4391,0.4214,0.4213,0.4212,0.4211,0,0,0.3904,0.3968,0.3975,0.3993,0.4077,0.4099,0.4163,0.4229,0.4271,0.4301,0.4354,0.4376,0.4389,0.4394,0.4391,0.4435,0.4519,0.4415,0.4416,0.4437,0.4626,0.4573,0.4582,0.453,0.4533,0.4535,0.4602,0,0.3904,0.3945,0.3992,0.4031,0.4052,0.4124,0.4172,0.4239,0.4294,0.4351,0.4396,0.4431,0.4424,0.4435,0.449,0.4516,0.456,0.4501,0.4559,0.456,0.4507,0.4598,0.4455,0.45,0.4614,0.4617,0.4618,0,0.3901,0.3931,0.3963,0.4016,0.4035,0.4068,0.4162,0.4214,0.4326,0.4371,0.4453,0.4486,0.4573,0.4543,0.4654,0.4619,0.4633,0.4647,0.465,0.459,0.4534,0.4455,0.4519,0.4438,0.4638,0.4637,0.4635,0,0.3839,0.3903,0.392,0.3944,0.4024,0.4049,0.4099,0.4209,0.4278,0.4391,0.4457,0.4556,0.4613,0.4672,0.4723,0.4695,0.4832,0.4791,0.4755,0.475,0.4634,0.4614,0.4628,0.4868,0.4868,0.4868,0.4868,0,0.381,0.3819,0.3883,0.389,0.3915,0.3988,0.4042,0.412,0.4259,0.4324,0.4454,0.4531,0.4654,0.4745,0.4764,0.4817,0.4873,0.4789,0.4782,0.465,0.4631,0.4558,0.4502,0.487,0.487,0.4869,0.4869,0,0.3726,0.3773,0.379,0.3862,0.3876,0.3892,0.4008,0.4051,0.4202,0.4301,0.4346,0.4556,0.4666,0.4774,0.4873,0.4868,0.4783,0.4903,0.4728,0.4699,0.4562,0.4514,0.4344,0.4204,0.4872,0.4871,0.4871,0,0.3686,0.3684,0.3746,0.3749,0.3772,0.3814,0.3834,0.3993,0.4052,0.4286,0.4316,0.4512,0.4617,0.4795,0.4831,0.4889,0.4742,0.4752,0.4673,0.4562,0.4504,0.4319,0.4199,0.4538,0.4534,0.4532,0.453,0,0.3617,0.3639,0.3658,0.3669,0.3678,0.3693,0.3738,0.3796,0.3959,0.4071,0.4215,0.4345,0.4562,0.4606,0.473,0.4731,0.4534,0.4697,0.4639,0.4302,0.4044,0.3902,0.4469,0.4506,0.4509,0.451,0.4512,0.4513,0.357,0.3569,0.36,0.3596,0.3591,0.3563,0.3543,0.3607,0.3696,0.3818,0.4007,0.4132,0.435,0.4536,0.452,0.444,0.4378,0.4316,0.4285,0.4121,0.3927,0.4433,0.4428,0.4429,0.4431,0.4432,0.4434,0,0.3543,0.3543,0.3526,0.3511,0.3447,0.3479,0.3468,0.3429,0.3444,0.3583,0.3697,0.3892,0.4013,0.4159,0.4221,0.408,0.3876,0.3952,0.3676,0.3591,0.4115,0.4045,0.3887,0.3887,0.3887,0.3887,0.3887,0.3887,0.3538,0.3521,0.3503,0.339,0.3347,0.3226,0.3191,0.3141,0.3192,0.3221,0.3308,0.3465,0.3825,0.402,0.3954,0.384,0.352,0.335,0.3317,0.3739,0.377,0.3799,0.3724,0.3501,0.35,0.2652,0.2646,0.2641]},{"header":{"parameterUnit":"m.s-1","parameterCategory":2,"la1":30.2991,"la2":30.254,"lo1":-89.0895,"lo2":-89.0444,"dy":0.0017,"dx":0.0017,"nx":28,"ny":28,"refTime":"2024-12-16T03:00:00:Z","depth":"0","parameterNumber":3,"parameterNumberName":"V-component_of_CURRENTS"},"data":[0,0,0,0,0,0,0,0,0,0,0,0,0,0,0,0,0,0,0,0,0,0,0,0,0,0,0,0,0,0,0,0,0,0,0,0,0,0,0,0,0,0,0,0,0,0,0,0,0,0,0,0,0,0,0,0,0,0,-0.0093,-0.0094,0,-0.0204,-0.0206,-0.0207,-0.0265,-0.0265,-0.0264,-0.0264,-0.0338,-0.0341,-0.0343,0,0,0,0,0,0,0,0,0,0,0,0,0,-0.005,-0.0051,-0.0093,-0.0094,-0.0095,-0.0204,-0.0206,-0.0208,-0.0265,-0.0265,-0.0264,-0.0264,-0.0338,-0.034,-0.0343,0,0,0,0,0,0,0,0,0,0,0,0,0,-0.011,-0.0051,-0.0093,-0.0134,-0.0138,-0.0204,-0.0206,-0.0208,-0.0265,-0.0265,-0.0264,-0.0264,-0.0337,-0.034,-0.0343,-0.0374,0,0,-0.0354,-0.0355,0,0,0,0,0,0,0,0,-0.0106,-0.0112,-0.0127,-0.0131,-0.0136,-0.0216,-0.0218,-0.0261,-0.0265,-0.0222,-0.0264,-0.0263,-0.0292,-0.0299,-0.0328,-0.0378,-0.0381,-0.0354,-0.0356,-0.0358,-0.0359,0,0,0,0,0,0,0,-0.0102,-0.0108,-0.0142,-0.0128,-0.0133,-0.0187,-0.0194,-0.0227,-0.0261,-0.0225,-0.0229,-0.0234,-0.0295,-0.0324,-0.0329,-0.0382,-0.0354,-0.0357,-0.0359,-0.0361,-0.043,-0.043,0,0,0,0,0,0,-0.0074,-0.0103,-0.0138,-0.0145,-0.0115,-0.0187,-0.0196,-0.0195,-0.0261,-0.027,-0.0235,-0.0236,-0.0319,-0.0325,-0.0332,-0.0321,-0.0358,-0.0361,-0.0363,-0.0431,-0.043,-0.043,0,0,0,0,0,0,-0.0072,-0.0075,-0.0134,-0.0124,-0.0134,-0.0187,-0.0187,-0.0197,-0.0217,-0.0268,-0.0277,-0.0242,-0.0318,-0.0327,-0.0338,-0.0326,-0.0362,-0.0366,-0.0431,-0.0431,-0.043,-0.033,0,0,0,0,0,0,-0.007,-0.0074,-0.0067,-0.0121,-0.0133,-0.0142,-0.0187,-0.0199,-0.022,-0.0223,-0.0277,-0.0285,-0.0319,-0.0332,-0.0341,-0.0331,-0.0368,-0.0431,-0.0431,-0.043,-0.0334,-0.0327,-0.032,0,0,0,0,0,-0.0068,-0.0048,-0.0066,-0.007,-0.012,-0.0141,-0.0152,-0.0192,-0.022,-0.0213,-0.0251,-0.0282,-0.0337,-0.0334,-0.0345,-0.0335,-0.0431,-0.0431,-0.043,-0.0337,-0.0328,-0.0321,0,0,0,0,0,0,-0.0021,-0.0053,-0.0073,-0.0063,-0.0088,-0.0148,-0.015,-0.0185,-0.0216,-0.0219,-0.0274,-0.0283,-0.0291,-0.0329,-0.0325,-0.0357,-0.0392,-0.0394,-0.0318,-0.031,-0.0303,-0.0278,-0.0371,0,0,0,0,0,-0.0007,-0.0004,-0.0041,-0.0033,-0.0041,-0.0098,-0.0115,-0.014,-0.0175,-0.019,-0.0227,-0.027,-0.0303,-0.0315,-0.0348,-0.0361,-0.0395,-0.0366,-0.0359,-0.0353,-0.0341,-0.0388,-0.0383,-0.0429,-0.0429,-0.0429,0,0,0.001,-0.0005,-0.0006,-0.0024,-0.0053,-0.005,-0.0107,-0.0118,-0.0116,-0.0191,-0.0196,-0.0244,-0.0301,-0.0313,-0.0321,-0.0338,-0.0355,-0.0352,-0.0346,-0.0338,-0.0387,-0.0382,-0.0378,-0.0428,-0.0428,-0.0428,0,0,0.0058,0.0037,0.006,0.0047,0.0024,-0.001,-0.0005,-0.0052,-0.0069,-0.0086,-0.014,-0.0172,-0.0225,-0.0259,-0.0287,-0.0266,-0.0318,-0.0284,-0.0227,-0.0272,-0.0269,-0.0266,-0.0286,-0.0286,-0.028,-0.028,-0.028,0,0.0082,0.0106,0.0064,0.0086,0.0087,0.0017,0.0047,0.0014,-0.0029,-0.0034,-0.0066,-0.0151,-0.02,-0.0221,-0.0218,-0.0248,-0.0276,-0.0249,-0.0261,-0.026,-0.0258,-0.028,-0.0282,-0.0275,-0.0276,-0.0276,-0.0276,0,0.0147,0.0167,0.0181,0.0184,0.0179,0.0192,0.0153,0.0143,0.0101,0.0064,0.0037,-0.0041,-0.0087,-0.0119,-0.0165,-0.018,-0.0202,-0.0245,-0.0275,-0.0247,-0.0273,-0.0276,-0.0268,-0.027,-0.0271,-0.0272,0,0,0.0194,0.0224,0.0227,0.0259,0.0236,0.0245,0.0249,0.0239,0.0253,0.0181,0.0191,0.01,0.0047,0.0012,-0.0056,-0.0107,-0.0127,-0.0166,-0.0171,-0.0172,-0.0207,-0.0217,-0.0222,-0.0173,-0.0174,-0.0174,-0.0221,0,0.0258,0.0335,0.0323,0.0388,0.0425,0.038,0.0396,0.0374,0.0337,0.0328,0.0227,0.0203,0.01,0.0081,0.0015,-0.0085,-0.0133,-0.0109,-0.0246,-0.0249,-0.0251,-0.0225,-0.0195,-0.0234,-0.0225,-0.0225,-0.0226,0,0.0326,0.037,0.0453,0.0512,0.0524,0.0544,0.0565,0.0569,0.0525,0.0501,0.044,0.0363,0.0285,0.0188,0.003,0.0051,-0.0066,-0.0159,-0.0164,-0.0209,-0.0265,-0.0267,-0.0241,-0.0431,-0.0231,-0.023,-0.023,0,0.0388,0.0464,0.0538,0.0554,0.0596,0.0626,0.0636,0.0618,0.0658,0.0604,0.0626,0.0501,0.0466,0.0292,0.0095,0.0065,-0.0079,-0.0144,-0.0263,-0.0264,-0.0283,-0.0285,-0.0446,-0.0259,-0.0259,-0.0259,-0.0259,0,0.0463,0.0523,0.0577,0.0614,0.0717,0.0704,0.0793,0.0782,0.0799,0.0861,0.0718,0.0748,0.0488,0.0372,0.0159,-0.0042,-0.0029,-0.0239,-0.0277,-0.0246,-0.0244,-0.0449,-0.0584,-0.0261,-0.026,-0.026,-0.026,0,0.0522,0.0551,0.0649,0.0717,0.075,0.0816,0.0919,0.0986,0.097,0.1048,0.1043,0.0952,0.0799,0.0539,0.0278,0.0075,-0.0258,-0.0224,-0.0157,-0.0187,-0.0482,-0.0612,-0.0831,-0.092,-0.0355,-0.0355,-0.0356,0,0.056,0.0613,0.073,0.0807,0.0845,0.0947,0.1031,0.1065,0.1151,0.1183,0.1243,0.1129,0.1084,0.071,0.0328,-0.0023,-0.0255,-0.0242,-0.031,-0.0481,-0.0656,-0.0749,-0.0816,-0.029,-0.029,-0.029,-0.029,0,0.0639,0.0675,0.0763,0.0918,0.1027,0.1166,0.1285,0.139,0.143,0.1509,0.1587,0.1553,0.1195,0.0881,0.0387,0.0109,-0.0378,-0.025,-0.0455,-0.0636,-0.0723,-0.0831,-0.0264,-0.0289,-0.0289,-0.0289,-0.0289,-0.0289,0.0705,0.0787,0.0904,0.1056,0.1191,0.1366,0.1497,0.1636,0.1802,0.1922,0.1862,0.1859,0.1368,0.0717,0.0325,-0.0349,-0.0384,-0.055,-0.0694,-0.0772,-0.0865,-0.0282,-0.0339,-0.0339,-0.034,-0.034,-0.034,0,0.0804,0.0899,0.1039,0.1226,0.1387,0.1437,0.1663,0.1809,0.2023,0.2121,0.2187,0.1953,0.1358,0.0703,-0.0189,-0.0674,-0.0878,-0.0961,-0.1096,-0.1145,-0.0638,-0.064,-0.0731,-0.0731,-0.0731,-0.0731,-0.073,-0.073,0.0867,0.1016,0.1085,0.1358,0.1491,0.1711,0.1848,0.2069,0.221,0.2359,0.2361,0.2323,0.1825,0.0236,-0.0838,-0.111,-0.1461,-0.1552,-0.1728,-0.1394,-0.1366,-0.134,-0.1372,-0.1615,-0.1617,-0.2141,-0.2147,-0.2151]}],[{"header":{"parameterUnit":"m.s-1","parameterCategory":2,"la1":30.2991,"la2":30.254,"lo1":-89.0895,"lo2":-89.0444,"dy":0.0017,"dx":0.0017,"nx":28,"ny":28,"refTime":"2024-12-16T03:00:00:Z","depth":"2","parameterNumber":2,"parameterNumberName":"U-component_of_CURRENTS"},"data":[0,0,0,0,0,0,0,0,0,0,0,0,0,0,0,0,0,0,0,0,0,0,0,0,0,0,0,0,0,0,0,0,0,0,0,0,0,0,0,0,0,0,0,0,0,0,0,0,0,0,0,0,0,0,0,0,0,0,0.3321,0.3322,0,0.3375,0.3375,0.3376,0.3398,0.3398,0.3398,0.3398,0.3422,0.3422,0.3423,0,0,0,0,0,0,0,0,0,0,0,0,0,0.3257,0.3258,0.3321,0.3322,0.3323,0.3375,0.3375,0.3376,0.3398,0.3398,0.3398,0.3398,0.3422,0.3422,0.3423,0,0,0,0,0,0,0,0,0,0,0,0,0,0.3293,0.3258,0.3321,0.3342,0.3344,0.3374,0.3375,0.3376,0.3398,0.3398,0.3398,0.3398,0.3421,0.3422,0.3423,0.3426,0,0,0.3426,0.3426,0,0,0,0,0,0,0,0,0.3291,0.3295,0.3338,0.334,0.3343,0.3381,0.3361,0.3392,0.3398,0.3375,0.3398,0.3398,0.3407,0.3409,0.3416,0.3428,0.3429,0.3426,0.3426,0.3427,0.3427,0,0,0,0,0,0,0,0.3288,0.3293,0.334,0.3339,0.3342,0.3355,0.3359,0.3367,0.3388,0.3377,0.3379,0.3388,0.3408,0.3415,0.3417,0.3429,0.3426,0.3427,0.3427,0.3427,0.3509,0.3511,0,0,0,0,0,0,0.3285,0.3291,0.3339,0.3342,0.3319,0.3356,0.3361,0.3367,0.3388,0.3392,0.3388,0.3389,0.3414,0.3416,0.3418,0.3485,0.3427,0.3428,0.3428,0.3508,0.351,0.3511,0,0,0,0,0,0,0.3283,0.3288,0.3337,0.3319,0.3327,0.3357,0.3364,0.3368,0.3396,0.3397,0.3401,0.3413,0.3414,0.3417,0.3447,0.3484,0.3428,0.3429,0.3506,0.3508,0.3511,0.358,0,0,0,0,0,0,0.3281,0.3287,0.3296,0.3319,0.3327,0.3371,0.3364,0.3369,0.3401,0.3403,0.3419,0.3421,0.3414,0.3446,0.3448,0.3484,0.3429,0.3504,0.3507,0.351,0.3576,0.3585,0.3593,0,0,0,0,0,0.3278,0.3288,0.3296,0.3303,0.3337,0.3372,0.3378,0.3398,0.3402,0.3421,0.3434,0.3421,0.3468,0.3448,0.345,0.3487,0.3502,0.3506,0.351,0.3572,0.3583,0.3592,0,0,0,0,0,0,0.3264,0.3292,0.3302,0.332,0.3352,0.3377,0.3397,0.3411,0.3437,0.3442,0.3439,0.3442,0.3486,0.3476,0.3455,0.3521,0.3484,0.3488,0.3531,0.3541,0.3549,0.355,0.343,0,0,0,0,0,0.3266,0.3282,0.3313,0.3331,0.3349,0.3378,0.3396,0.3414,0.3437,0.3449,0.3461,0.3476,0.35,0.3512,0.3526,0.3558,0.3567,0.3584,0.3593,0.36,0.3602,0.3658,0.3672,0.3524,0.3524,0.3524,0,0,0.3261,0.3283,0.329,0.333,0.3355,0.3388,0.339,0.3428,0.3458,0.3447,0.3492,0.3507,0.3516,0.3557,0.3575,0.3555,0.3648,0.3604,0.361,0.3609,0.3664,0.3678,0.3691,0.3526,0.3526,0.3525,0,0,0.3267,0.3288,0.3305,0.3337,0.3385,0.3406,0.3423,0.3463,0.3487,0.353,0.3536,0.3575,0.36,0.3622,0.3633,0.3695,0.3693,0.3703,0.3744,0.3799,0.3811,0.3823,0.3858,0.3871,0.3704,0.3704,0.3705,0,0.3259,0.3289,0.3318,0.3351,0.338,0.3418,0.345,0.3484,0.3529,0.3559,0.3552,0.3626,0.3632,0.3694,0.3716,0.3715,0.3739,0.3705,0.381,0.3821,0.3832,0.3865,0.3879,0.3708,0.3708,0.3707,0.3707,0,0.3282,0.3312,0.333,0.3382,0.3418,0.3454,0.3504,0.3548,0.358,0.3613,0.3686,0.3705,0.375,0.3763,0.3757,0.3839,0.3831,0.3817,0.3784,0.3851,0.3881,0.3895,0.3714,0.3712,0.3711,0.371,0,0,0.3238,0.3326,0.3331,0.336,0.3437,0.3463,0.3534,0.3602,0.3652,0.3704,0.3771,0.3819,0.3842,0.3856,0.3867,0.3909,0.4001,0.3897,0.3898,0.393,0.4121,0.4071,0.4081,0.4014,0.4016,0.4018,0.4115,0,0.3243,0.3299,0.3351,0.3405,0.3435,0.3505,0.3562,0.3634,0.3698,0.3774,0.3826,0.389,0.3875,0.3908,0.3954,0.3996,0.404,0.3976,0.4052,0.4053,0.4001,0.4096,0.378,0.3835,0.4128,0.413,0.4132,0,0.3238,0.3279,0.3328,0.3414,0.3435,0.3478,0.3582,0.3642,0.3765,0.3821,0.3908,0.3956,0.4046,0.4014,0.4126,0.409,0.4112,0.4131,0.4135,0.4072,0.403,0.3816,0.3849,0.4154,0.4152,0.4151,0.4149,0,0.3167,0.3257,0.3293,0.3322,0.3427,0.347,0.3533,0.3651,0.3728,0.386,0.3939,0.4038,0.4111,0.4162,0.422,0.4185,0.4332,0.4286,0.4259,0.4255,0.3989,0.3958,0.4359,0.4359,0.4359,0.4359,0.4358,0,0.3135,0.3162,0.3263,0.3277,0.3337,0.3424,0.3505,0.3595,0.3742,0.383,0.3956,0.4046,0.4157,0.4256,0.4269,0.4324,0.438,0.4288,0.4289,0.4005,0.3975,0.4245,0.423,0.4362,0.4362,0.4361,0.436,0,0.3046,0.3112,0.3155,0.3262,0.33,0.3339,0.3494,0.3556,0.3709,0.3837,0.3892,0.4096,0.4219,0.4318,0.4417,0.4395,0.4437,0.4434,0.4092,0.4052,0.4303,0.4291,0.441,0.4409,0.4409,0.4408,0.4408,0,0.3005,0.3017,0.312,0.3148,0.3198,0.3279,0.3339,0.3513,0.3592,0.3842,0.3896,0.4101,0.4205,0.437,0.4374,0.4419,0.446,0.4127,0.3998,0.4326,0.4315,0.4304,0.4293,0.3669,0.3663,0.3658,0.3654,0,0.2931,0.2967,0.3007,0.3062,0.312,0.3184,0.3287,0.3353,0.3546,0.3673,0.3836,0.3956,0.4155,0.4082,0.4179,0.4143,0.4095,0.4023,0.447,0.3717,0.3639,0.3625,0.3636,0.3607,0.3612,0.3615,0.3618,0.3619,0.2876,0.2882,0.2933,0.2972,0.303,0.306,0.3065,0.3186,0.3292,0.3437,0.3635,0.3708,0.3809,0.3809,0.372,0.3657,0.3925,0.3725,0.3736,0.3753,0.3662,0.3589,0.3529,0.3533,0.3536,0.354,0.3542,0,0.28,0.2819,0.2845,0.2875,0.2863,0.2945,0.3005,0.2979,0.3021,0.3198,0.3314,0.314,0.3146,0.3232,0.3091,0.3124,0.304,0.2973,0.2818,0.2871,0.2916,0.2774,0.241,0.2405,0.2401,0.2398,0,0,0.2765,0.2748,0.275,0.2695,0.271,0.2654,0.2647,0.2645,0.2714,0.2728,0.2757,0.3023,0.3168,0.2739,0.2711,0.2528,0.2661,0.2432,0.3356,0.3228,0.3267,0.3387,0.3236,0,0,0,0,0]},{"header":{"parameterUnit":"m.s-1","parameterCategory":2,"la1":30.2991,"la2":30.254,"lo1":-89.0895,"lo2":-89.0444,"dy":0.0017,"dx":0.0017,"nx":28,"ny":28,"refTime":"2024-12-16T03:00:00:Z","depth":"2","parameterNumber":3,"parameterNumberName":"V-component_of_CURRENTS"},"data":[0,0,0,0,0,0,0,0,0,0,0,0,0,0,0,0,0,0,0,0,0,0,0,0,0,0,0,0,0,0,0,0,0,0,0,0,0,0,0,0,0,0,0,0,0,0,0,0,0,0,0,0,0,0,0,0,0,0,0.02,0.02,0,0.0122,0.0121,0.012,0.0065,0.0065,0.0065,0.0065,-0.0056,-0.0059,-0.0062,0,0,0,0,0,0,0,0,0,0,0,0,0,0.0236,0.0236,0.02,0.02,0.0199,0.0122,0.0121,0.0119,0.0066,0.0065,0.0065,0.0064,-0.0055,-0.0058,-0.0062,0,0,0,0,0,0,0,0,0,0,0,0,0,0.0194,0.0236,0.0201,0.0163,0.0159,0.0122,0.012,0.0119,0.0066,0.0065,0.0065,0.0064,-0.0054,-0.0058,-0.0062,-0.008,0,0,-0.0076,-0.0078,0,0,0,0,0,0,0,0,0.0197,0.0193,0.017,0.0166,0.0161,0.0104,0.0089,0.0051,0.0066,0.01,0.0065,0.0064,-0.0005,-0.0014,-0.0028,-0.0086,-0.0091,-0.0076,-0.0079,-0.0081,-0.0082,0,0,0,0,0,0,0,0.02,0.0196,0.0168,0.0169,0.0164,0.0127,0.0121,0.0081,0.0049,0.0097,0.0093,0.0086,-0.0008,-0.0024,-0.0032,-0.0092,-0.0076,-0.008,-0.0082,-0.0084,-0.0173,-0.0172,0,0,0,0,0,0,0.0216,0.0199,0.0171,0.0166,0.0179,0.0127,0.012,0.0122,0.0051,0.004,0.0087,0.0084,-0.0016,-0.0026,-0.0036,-0.0052,-0.0081,-0.0085,-0.0087,-0.0173,-0.0173,-0.0172,0,0,0,0,0,0,0.0217,0.0214,0.0174,0.0181,0.0173,0.0128,0.0129,0.0121,0.0105,0.0043,0.0031,0.008,-0.0017,-0.003,-0.0066,-0.0057,-0.0087,-0.0091,-0.0173,-0.0173,-0.0173,-0.0089,0,0,0,0,0,0,0.0218,0.0215,0.0219,0.0182,0.0173,0.0161,0.0129,0.0119,0.0102,0.0097,0.0034,0.0022,-0.0018,-0.0059,-0.007,-0.0064,-0.0094,-0.0174,-0.0173,-0.0173,-0.0092,-0.0086,-0.0081,0,0,0,0,0,0.022,0.0235,0.022,0.0216,0.0181,0.0162,0.0154,0.0118,0.0102,0.0101,0.0058,0.0024,-0.0064,-0.0062,-0.0076,-0.007,-0.0174,-0.0173,-0.0173,-0.0095,-0.0087,-0.0081,0,0,0,0,0,0,0.025,0.023,0.0212,0.0219,0.0194,0.0153,0.015,0.0124,0.009,0.0086,0.0026,0.0011,-0.0018,-0.0055,-0.0052,-0.0095,-0.0124,-0.0126,-0.006,-0.0054,-0.0048,-0.002,-0.0098,0,0,0,0,0,0.026,0.0266,0.0235,0.0238,0.0232,0.0191,0.0177,0.0156,0.0121,0.0105,0.006,0.0014,-0.0026,-0.0047,-0.0089,-0.0111,-0.0149,-0.0117,-0.0111,-0.0105,-0.0092,-0.0144,-0.0141,-0.017,-0.017,-0.017,0,0,0.0272,0.0261,0.0263,0.0245,0.0223,0.0228,0.0182,0.0172,0.0171,0.0098,0.0082,0.0031,-0.0028,-0.0053,-0.0069,-0.0082,-0.0117,-0.0105,-0.0099,-0.0089,-0.0143,-0.014,-0.0138,-0.017,-0.017,-0.017,0,0,0.0307,0.0291,0.0311,0.0299,0.0277,0.0255,0.0257,0.022,0.02,0.0176,0.0124,0.0083,0.0022,-0.0015,-0.0042,-0.0029,-0.0085,-0.0046,0.0007,-0.0043,-0.0041,-0.004,-0.0079,-0.0082,-0.0041,-0.0041,-0.0041,0,0.0322,0.0344,0.0312,0.0328,0.0328,0.0275,0.0299,0.0271,0.0226,0.0214,0.0183,0.0096,0.0043,0.0015,0.0018,-0.0015,-0.005,-0.0012,-0.0034,-0.0034,-0.0034,-0.0075,-0.0079,-0.0037,-0.0037,-0.0038,-0.0038,0,0.0374,0.0389,0.0401,0.0407,0.0402,0.0413,0.0379,0.0365,0.0331,0.0297,0.0257,0.018,0.0132,0.0103,0.0063,0.0041,0.0013,-0.0021,-0.0047,-0.0026,-0.0071,-0.0077,-0.0031,-0.0032,-0.0034,-0.0035,0,0,0.0421,0.0437,0.0441,0.0463,0.0449,0.0456,0.0456,0.0444,0.0451,0.0382,0.038,0.0296,0.0248,0.0214,0.0151,0.0103,0.0067,0.005,0.0045,0.002,-0.0038,-0.0056,-0.0064,0.0026,0.0026,0.0025,-0.0068,0,0.0473,0.053,0.0519,0.0571,0.0601,0.0564,0.0574,0.0551,0.0514,0.0494,0.0403,0.0373,0.0291,0.0271,0.0209,0.0105,0.0055,0.0096,-0.0064,-0.0068,-0.0079,-0.007,-0.0043,-0.0123,-0.0074,-0.0075,-0.0076,0,0.0531,0.0565,0.0629,0.0668,0.0678,0.0694,0.0708,0.0709,0.066,0.0629,0.0571,0.0501,0.0425,0.035,0.0186,0.0216,0.0102,0.0013,0.0006,-0.0041,-0.0096,-0.014,-0.0136,-0.0086,-0.0086,-0.0085,-0.0084,0,0.0591,0.0643,0.0701,0.0713,0.0743,0.0761,0.077,0.0747,0.0772,0.0713,0.0721,0.0602,0.056,0.04,0.0216,0.02,0.0032,-0.0017,-0.014,-0.0143,-0.0165,-0.0168,-0.0132,-0.0132,-0.0132,-0.0132,-0.0131,0,0.0656,0.0702,0.0734,0.0766,0.0841,0.0829,0.0894,0.0876,0.088,0.0921,0.0797,0.0805,0.057,0.0447,0.0257,0.005,0.0059,-0.0123,-0.0167,-0.0135,-0.0134,-0.014,-0.014,-0.0135,-0.0134,-0.0134,-0.0133,0,0.071,0.0728,0.0803,0.0851,0.0871,0.0921,0.0993,0.1042,0.1021,0.1071,0.1064,0.0962,0.08,0.0562,0.0307,0.0124,-0.0086,-0.0164,-0.0104,-0.0139,-0.0239,-0.0233,-0.031,-0.0312,-0.0313,-0.0314,-0.0315,0,0.0742,0.0784,0.087,0.0923,0.0946,0.1022,0.1084,0.1105,0.1171,0.1176,0.1217,0.1089,0.102,0.0642,0.03,-0.003,-0.0081,-0.0231,-0.0262,-0.0221,-0.0257,-0.0249,-0.0242,-0.0262,-0.0263,-0.0263,-0.0263,0,0.0803,0.0828,0.0891,0.1005,0.1081,0.1187,0.1275,0.1354,0.1385,0.1436,0.1473,0.142,0.1068,0.075,0.0292,0.0056,-0.0179,-0.0247,-0.0226,-0.0214,-0.0182,-0.0214,-0.0208,-0.0265,-0.0265,-0.0265,-0.0265,-0.0265,0.0845,0.0899,0.098,0.1088,0.1191,0.1323,0.1417,0.153,0.1653,0.1728,0.1671,0.1598,0.1222,0.0655,0.025,-0.0187,-0.017,-0.0331,-0.0328,-0.0325,-0.0296,-0.0267,-0.036,-0.036,-0.0361,-0.0361,-0.0361,0,0.0892,0.0953,0.1058,0.1189,0.1311,0.136,0.153,0.1628,0.1782,0.1859,0.189,0.153,0.1169,0.0727,0.0098,-0.0276,-0.0318,-0.0412,-0.0369,-0.0363,-0.036,-0.0331,-0.0406,-0.0407,-0.0408,-0.0409,0,0,0.0915,0.1011,0.1064,0.1256,0.1359,0.1523,0.1624,0.1772,0.187,0.195,0.1923,0.1847,0.1311,0.0857,0.034,-0.0026,-0.0115,-0.0116,-0.0041,0.0077,0.0085,-0.0276,-0.0222,0,0,0,0,0]}],[{"header":{"parameterUnit":"m.s-1","parameterCategory":2,"la1":30.2991,"la2":30.254,"lo1":-89.0895,"lo2":-89.0444,"dy":0.0017,"dx":0.0017,"nx":28,"ny":28,"refTime":"2024-12-16T03:00:00:Z","depth":"4","parameterNumber":2,"parameterNumberName":"U-component_of_CURRENTS"},"data":[0,0,0,0,0,0,0,0,0,0,0,0,0,0,0,0,0,0,0,0,0,0,0,0,0,0,0,0,0,0,0,0,0,0,0,0,0,0,0,0,0,0,0,0,0,0,0,0,0,0,0,0,0,0,0,0,0,0,0.214,0.2141,0,0.2234,0.2235,0.2236,0.2311,0.2312,0.2313,0.2314,0.2423,0.2425,0.2427,0,0,0,0,0,0,0,0,0,0,0,0,0,0.2013,0.2014,0.214,0.2141,0.2143,0.2234,0.2235,0.2236,0.2311,0.2312,0.2313,0.2315,0.2422,0.2425,0.2427,0,0,0,0,0,0,0,0,0,0,0,0,0,0.2081,0.2015,0.214,0.2193,0.2199,0.2233,0.2235,0.2236,0.2311,0.2312,0.2314,0.2315,0.2422,0.2425,0.2427,0.2417,0,0,0.2437,0.2438,0,0,0,0,0,0,0,0,0.2077,0.2085,0.2184,0.2189,0.2196,0.2264,0.223,0.2298,0.231,0.2266,0.2314,0.2316,0.2372,0.2379,0.239,0.2422,0.2426,0.2437,0.2439,0.244,0.2441,0,0,0,0,0,0,0,0.2072,0.2082,0.2175,0.2185,0.2193,0.2208,0.2219,0.2243,0.2308,0.227,0.2276,0.229,0.2375,0.2387,0.2393,0.2428,0.2437,0.2439,0.2441,0.2442,0.2599,0.2601,0,0,0,0,0,0,0.2065,0.2077,0.2172,0.2178,0.2141,0.2209,0.2221,0.2239,0.2308,0.232,0.2288,0.2293,0.2381,0.239,0.2397,0.2519,0.244,0.2443,0.2444,0.2597,0.2599,0.2602,0,0,0,0,0,0,0.2061,0.2072,0.2168,0.2131,0.2145,0.221,0.2229,0.224,0.23,0.2322,0.2334,0.2342,0.2382,0.2393,0.2468,0.2519,0.2444,0.2447,0.2594,0.2598,0.2601,0.2678,0,0,0,0,0,0,0.2057,0.207,0.2103,0.2131,0.2147,0.222,0.2228,0.2241,0.2304,0.2312,0.2371,0.238,0.2384,0.2464,0.2471,0.2521,0.2449,0.2591,0.2595,0.26,0.2672,0.2684,0.2693,0,0,0,0,0,0.2052,0.2081,0.2104,0.2117,0.2182,0.2222,0.2232,0.228,0.2305,0.2338,0.2387,0.2381,0.2497,0.2469,0.2477,0.2528,0.2589,0.2594,0.2599,0.2668,0.2681,0.2693,0,0,0,0,0,0,0.2043,0.2093,0.2118,0.2163,0.2206,0.2236,0.2278,0.2305,0.2367,0.2393,0.2409,0.2422,0.2507,0.2507,0.2475,0.2587,0.2542,0.255,0.2592,0.2605,0.2615,0.2612,0.2452,0,0,0,0,0,0.2054,0.2096,0.2137,0.218,0.2205,0.225,0.2282,0.2316,0.2362,0.2394,0.2435,0.2482,0.2525,0.2559,0.2593,0.2653,0.2656,0.2692,0.2703,0.2711,0.2716,0.2766,0.2781,0.262,0.2619,0.2619,0,0,0.2062,0.2098,0.2123,0.2182,0.2223,0.2265,0.2275,0.2338,0.2386,0.2394,0.2489,0.2524,0.2551,0.2623,0.266,0.2636,0.2762,0.2718,0.2726,0.2725,0.2773,0.2789,0.2803,0.2623,0.2622,0.2622,0,0,0.2082,0.2134,0.2172,0.2213,0.2283,0.2309,0.2336,0.2398,0.2446,0.2525,0.2549,0.2617,0.2683,0.2714,0.2733,0.2821,0.2816,0.2841,0.2894,0.2943,0.2956,0.2968,0.3001,0.3015,0.2846,0.2846,0.2846,0,0.2094,0.2145,0.2189,0.2235,0.2279,0.2332,0.238,0.2429,0.2512,0.2558,0.2571,0.2695,0.2721,0.2801,0.2838,0.2845,0.2868,0.2842,0.2956,0.2968,0.2978,0.3008,0.3023,0.2851,0.285,0.285,0.2849,0,0.2126,0.2188,0.2217,0.2293,0.2344,0.2398,0.2463,0.2532,0.2595,0.2641,0.2754,0.2796,0.2868,0.2891,0.2894,0.2991,0.2983,0.2962,0.292,0.2999,0.3026,0.304,0.2857,0.2855,0.2854,0.2853,0,0,0.2093,0.2215,0.223,0.2279,0.2383,0.2419,0.2516,0.2604,0.2673,0.2762,0.2852,0.2936,0.2973,0.2998,0.3021,0.3065,0.3164,0.3057,0.3057,0.3082,0.3277,0.3079,0.3074,0.3172,0.3175,0.3177,0.3268,0,0.2109,0.2195,0.226,0.2352,0.24,0.249,0.2569,0.2662,0.2748,0.2848,0.2919,0.3013,0.3009,0.3064,0.3111,0.3158,0.3203,0.3141,0.3202,0.3204,0.3012,0.3084,0.3186,0.3277,0.328,0.3283,0.3284,0,0.2109,0.2172,0.2262,0.2386,0.2418,0.2486,0.2624,0.2705,0.2848,0.2922,0.3029,0.3089,0.3198,0.3171,0.3289,0.3257,0.3279,0.3295,0.3299,0.3092,0.303,0.3181,0.3308,0.3306,0.3305,0.3303,0.3302,0,0.2039,0.2169,0.2243,0.2286,0.2431,0.2504,0.2591,0.2734,0.2824,0.2985,0.307,0.3186,0.3274,0.3325,0.3381,0.3354,0.3487,0.3444,0.3282,0.3269,0.3385,0.3371,0.3514,0.3513,0.3513,0.3513,0.3513,0,0.2004,0.2069,0.2224,0.2262,0.2363,0.248,0.2603,0.2708,0.2874,0.2969,0.3111,0.3191,0.3323,0.3411,0.3426,0.3399,0.3528,0.3299,0.328,0.3416,0.3405,0.3395,0.338,0.3516,0.3516,0.3515,0.3514,0,0.1913,0.2016,0.2109,0.2274,0.2334,0.2409,0.2612,0.2688,0.2865,0.2998,0.3063,0.3247,0.3342,0.3442,0.3533,0.344,0.344,0.3396,0.3554,0.3541,0.3176,0.3165,0.3206,0.32,0.3195,0.3191,0.3187,0,0.1869,0.191,0.2096,0.2155,0.2241,0.2377,0.2464,0.2663,0.2742,0.299,0.3029,0.3211,0.33,0.3279,0.3386,0.3405,0.3363,0.3339,0.3228,0.3168,0.3147,0.3143,0.3139,0.3179,0.3177,0.3176,0.3174,0,0.1786,0.1872,0.1949,0.2071,0.2176,0.2274,0.2413,0.2459,0.2668,0.286,0.2926,0.2984,0.3087,0.3143,0.3195,0.3195,0.3336,0.3282,0.3292,0.3188,0.3135,0.3118,0.312,0.3156,0.3159,0.316,0.3162,0,0.1729,0.1759,0.1873,0.1962,0.2083,0.2125,0.222,0.2309,0.2418,0.2679,0.2689,0.2875,0.3047,0.3035,0.3077,0.3073,0.3011,0.2895,0.2924,0.2945,0.2816,0.2708,0.2588,0,0,0,0,0,0.1659,0.1677,0.1753,0.1834,0.1942,0.2008,0.2162,0.2255,0.2455,0.2435,0.2557,0.2634,0.2699,0.2797,0.2739,0.2958,0.3024,0.2877,0.2905,0.3055,0.3076,0.2947,0,0,0,0,0,0,0.1612,0.1677,0.1703,0.1706,0.1732,0.1827,0.1912,0.2046,0.2045,0.2257,0.2309,0.2473,0.2579,0.2706,0.2688,0.2717,0.268,0.3,0.2993,0.3043,0.3062,0.3079,0.2954,0,0,0,0,0]},{"header":{"parameterUnit":"m.s-1","parameterCategory":2,"la1":30.2991,"la2":30.254,"lo1":-89.0895,"lo2":-89.0444,"dy":0.0017,"dx":0.0017,"nx":28,"ny":28,"refTime":"2024-12-16T03:00:00:Z","depth":"4","parameterNumber":3,"parameterNumberName":"V-component_of_CURRENTS"},"data":[0,0,0,0,0,0,0,0,0,0,0,0,0,0,0,0,0,0,0,0,0,0,0,0,0,0,0,0,0,0,0,0,0,0,0,0,0,0,0,0,0,0,0,0,0,0,0,0,0,0,0,0,0,0,0,0,0,0,0.0213,0.0212,0,0.0161,0.016,0.0159,0.0127,0.0127,0.0126,0.0126,0.0044,0.0042,0.004,0,0,0,0,0,0,0,0,0,0,0,0,0,0.0236,0.0236,0.0213,0.0212,0.0212,0.0161,0.016,0.0159,0.0127,0.0127,0.0126,0.0126,0.0044,0.0042,0.0039,0,0,0,0,0,0,0,0,0,0,0,0,0,0.0208,0.0236,0.0213,0.019,0.0188,0.0161,0.016,0.0159,0.0127,0.0127,0.0126,0.0126,0.0045,0.0042,0.0039,0.0022,0,0,0.0029,0.0028,0,0,0,0,0,0,0,0,0.021,0.0207,0.0194,0.0192,0.0189,0.0151,0.0138,0.0112,0.0127,0.0149,0.0126,0.0126,0.0077,0.0072,0.0061,0.0019,0.0015,0.0029,0.0027,0.0026,0.0025,0,0,0,0,0,0,0,0.0212,0.0209,0.0191,0.0193,0.019,0.0166,0.0162,0.0133,0.0113,0.0147,0.0145,0.014,0.0076,0.0064,0.0059,0.0014,0.0029,0.0026,0.0024,0.0023,-0.0044,-0.0044,0,0,0,0,0,0,0.0223,0.0211,0.0193,0.019,0.02,0.0166,0.0162,0.0162,0.0114,0.0107,0.0141,0.0139,0.007,0.0063,0.0056,0.0049,0.0026,0.0023,0.0021,-0.0044,-0.0044,-0.0044,0,0,0,0,0,0,0.0224,0.0222,0.0195,0.02,0.0195,0.0166,0.0167,0.0162,0.0154,0.011,0.0102,0.014,0.0069,0.006,0.0037,0.0045,0.0021,0.0019,-0.0044,-0.0044,-0.0044,0.0025,0,0,0,0,0,0,0.0225,0.0223,0.0227,0.0201,0.0195,0.0188,0.0167,0.0161,0.0152,0.015,0.0106,0.0098,0.0069,0.0042,0.0034,0.004,0.0016,-0.0044,-0.0044,-0.0044,0.0023,0.0028,0.0032,0,0,0,0,0,0.0226,0.0237,0.0228,0.0226,0.0202,0.0189,0.0184,0.0162,0.0152,0.0154,0.0124,0.01,0.0037,0.0039,0.003,0.0036,-0.0044,-0.0044,-0.0044,0.0021,0.0027,0.0032,0,0,0,0,0,0,0.0248,0.0234,0.0224,0.0229,0.0214,0.0184,0.0185,0.0168,0.0146,0.0145,0.0101,0.0091,0.0073,0.0044,0.0047,0.0016,-0.0008,-0.001,0.0045,0.005,0.0054,0.0075,0.0013,0,0,0,0,0,0.0256,0.0262,0.024,0.0244,0.0241,0.0213,0.0205,0.0192,0.0168,0.0158,0.0128,0.0094,0.0065,0.0051,0.002,0.0004,-0.0031,0.0001,0.0005,0.0009,0.0019,-0.0029,-0.0028,-0.0043,-0.0043,-0.0043,0,0,0.0265,0.0258,0.0261,0.025,0.0236,0.0241,0.0208,0.0204,0.0206,0.0152,0.0146,0.0109,0.0064,0.0047,0.0036,0.0025,-0.0005,0.001,0.0014,0.0021,-0.0029,-0.0027,-0.0026,-0.0043,-0.0043,-0.0043,0,0,0.0292,0.0283,0.0298,0.0291,0.0279,0.0264,0.0267,0.0243,0.0231,0.0217,0.0179,0.015,0.0107,0.0078,0.0057,0.0067,0.002,0.0055,0.0097,0.005,0.0051,0.0052,0.0011,0.0007,0.0059,0.0059,0.0059,0,0.0304,0.0321,0.0299,0.0313,0.0316,0.028,0.03,0.0281,0.0252,0.0245,0.0225,0.0162,0.0123,0.0101,0.0104,0.0079,0.0046,0.0082,0.0057,0.0057,0.0056,0.0014,0.0009,0.0063,0.0062,0.0062,0.0062,0,0.0341,0.0355,0.0365,0.0373,0.0373,0.0383,0.0361,0.0355,0.0334,0.0311,0.0284,0.0227,0.0191,0.017,0.0141,0.012,0.0095,0.0069,0.0048,0.0062,0.0016,0.001,0.0067,0.0066,0.0065,0.0064,0,0,0.037,0.039,0.0394,0.0414,0.0409,0.0416,0.0421,0.0415,0.0423,0.0376,0.0377,0.0316,0.0281,0.0254,0.0207,0.0166,0.0128,0.0123,0.0119,0.0091,0.0028,0.0016,0.0007,0.0097,0.0096,0.0096,-0.0002,0,0.0408,0.0454,0.0451,0.0496,0.0519,0.0498,0.051,0.0497,0.0473,0.0461,0.0393,0.0373,0.0313,0.03,0.0248,0.016,0.0115,0.0158,0.0011,0.0007,0.0,0.0,0.0093,-0.0007,-0.0008,-0.0009,-0.001,0,0.0445,0.0475,0.0529,0.0568,0.0577,0.0596,0.0614,0.0619,0.0586,0.0565,0.0522,0.0469,0.0407,0.0353,0.021,0.0239,0.0144,0.007,0.0063,0.0026,-0.0017,-0.0027,-0.0023,-0.0022,-0.0021,-0.002,-0.0019,0,0.048,0.0529,0.058,0.0592,0.0626,0.0648,0.0663,0.0651,0.0673,0.0632,0.0638,0.0542,0.0505,0.0373,0.022,0.0214,0.0056,0.0025,-0.0078,-0.008,-0.007,-0.007,-0.0077,-0.0077,-0.0077,-0.0076,-0.0076,0,0.0517,0.0559,0.0604,0.063,0.0698,0.0699,0.0759,0.075,0.0758,0.0787,0.0699,0.0692,0.0509,0.0399,0.0245,0.0068,0.0071,-0.0068,-0.0105,-0.0039,-0.0034,-0.0075,-0.0073,-0.008,-0.0079,-0.0078,-0.0078,0,0.054,0.0569,0.0634,0.069,0.0716,0.0762,0.0838,0.0876,0.0869,0.0902,0.0899,0.0805,0.0658,0.0469,0.0251,0.0114,-0.0062,-0.0127,-0.0033,-0.0064,-0.0175,-0.0169,-0.025,-0.0251,-0.0252,-0.0253,-0.0254,0,0.0554,0.0589,0.0681,0.073,0.0761,0.0836,0.0893,0.0925,0.0969,0.097,0.0987,0.0875,0.0782,0.0477,0.0261,-0.0033,-0.0081,-0.018,-0.0188,-0.0164,-0.0192,-0.0185,-0.0177,-0.0255,-0.0256,-0.0256,-0.0256,0,0.0577,0.0612,0.0667,0.0773,0.0848,0.094,0.1019,0.1062,0.1093,0.1102,0.1061,0.0905,0.0737,0.0487,0.026,0.0045,-0.0121,-0.0192,-0.0191,-0.02,-0.0172,-0.0197,-0.0189,-0.026,-0.0259,-0.0259,-0.0259,0,0.0594,0.0635,0.0711,0.0803,0.0907,0.0999,0.1046,0.1099,0.1144,0.1141,0.1125,0.0942,0.084,0.0528,0.0318,0.0106,0.0043,-0.0043,-0.0052,-0.005,0.0029,0.0095,0.0061,0,0,0,0,0,0.0601,0.0646,0.0734,0.0836,0.0944,0.1007,0.1111,0.115,0.1188,0.1171,0.1151,0.0995,0.0687,0.0561,0.0348,0.0276,-0.0008,0.0015,-0.0114,-0.028,-0.0275,-0.0219,0,0,0,0,0,0,0.0602,0.0679,0.0724,0.0847,0.0922,0.1043,0.1112,0.1144,0.1138,0.1143,0.0995,0.0924,0.0637,0.0811,0.034,0.0277,0.0159,-0.0119,-0.0125,-0.0282,-0.0278,-0.0275,-0.0215,0,0,0,0,0]}]]